{"data":{"norad_id":66028,"intl_designator":"2025-232Z","name":"STARLINK-35339","alt_names":[],"object_type":"PAYLOAD","status":"ACTIVE","operator":null,"country":"US","launch_date":"2025-10-16","launch_site_code":"AFETR","launch_vehicle":null,"mission":null,"orbit_class":"UNKNOWN","rcs_meters":null,"size_class":null,"mass_kg":null,"dimensions":null,"purposes":["comms"],"wikipedia_slug":null,"has_3d_model":false,"image_url":null,"decayed_at":null,"tle_current":{"epoch":"2026-05-25T04:12:01.137024Z","epoch_age_seconds":70659,"freshness":"FRESH","line1":"1 66028U 25232Z   26145.17501316  .00023991  00000+0  81916-3 0  9999","line2":"2 66028  53.1579 108.7840 0001364  90.0602 270.0555 15.30213763 35141","mean_motion":15.30213763,"eccentricity":0.0001364,"inclination_deg":53.1579,"raan_deg":108.784,"arg_perigee_deg":90.0602,"mean_anomaly_deg":270.0555,"bstar":0.00081916,"rev_number":3514,"period_min":94.104499307134,"perigee_km":474.23918427301,"apogee_km":476.10876750724,"semimajor_km":6853.3109758901,"source":"CELESTRAK","updated_at":"2026-05-25T13:38:21.018453Z"}}}